"startDT [UTC]","vpos","CH4 [ppm]","stdev(CH4) [ppm]","CO2 [ppm]","stdev(CO2) [ppm]","H2O [ppm]","stdev(H2O)","p_LGR [torr]","T_LGR [C]","mt1_LGR [us]","mt2_LGR [us]","T_ECpre [C]","T_EC1 [C]","T_EC2 [C]","p_inlet [hPa]","p_in [hPa]","p_out [hPa]","T_inlet [C]","RH_inlet [%]","dwpt_inlet [C]","T_vent [C]","RH_vent [%]","dwpt_vent [C]","flow_vent [l min-1]","flow_inlet [l min-1]","dwpt_sample [C]","T_room [C]"
2012-01-12 00:00:00,0.0,1.9208,0.0010,403.53,0.22,2.1,10.9,138.14,27.09,24.58,36.26,0.04,-272.73,-272.74,-46,551,-929,21.9,1.8,-30.9,21.9,1.8,-30.5,5.73,2.51,-29.4,26.8
2012-01-12 00:01:00,0.0,1.9209,0.0008,403.54,0.22,0.4,5.4,138.14,27.09,24.58,36.26,0.04,-272.73,-272.74,-46,551,-930,21.9,1.8,-30.9,21.9,1.8,-30.6,5.73,2.34,-29.3,26.9
2012-01-12 00:02:00,0.0,1.9208,0.0009,403.53,0.23,0.2,4.3,138.14,27.10,24.58,36.25,0.04,-272.73,-272.74,-46,551,-929,21.9,1.8,-30.9,21.9,1.8,-30.5,5.73,2.40,-29.3,26.8
2012-01-12 00:03:00,0.0,1.9207,0.0009,403.44,0.21,0.6,6.3,138.14,27.10,24.58,36.26,0.04,-272.74,-272.74,-47,551,-929,21.9,1.7,-31.0,21.9,1.8,-30.7,5.73,2.49,-29.3,26.8
2012-01-12 00:04:00,0.0,1.9207,0.0013,403.32,0.24,-0.0,3.8,138.14,27.10,24.58,36.26,0.04,-272.74,-272.74,-46,551,-929,21.9,1.7,-31.0,21.9,1.8,-30.7,5.73,2.31,-29.3,26.8
2012-01-12 00:05:00,0.0,1.9207,0.0010,403.41,0.24,0.9,6.5,138.14,27.10,24.58,36.26,0.04,-272.74,-272.74,-47,551,-929,21.9,1.7,-31.0,21.9,1.8,-30.7,5.73,2.48,-29.3,26.8
2012-01-12 00:06:00,0.0,1.9208,0.0011,403.30,0.23,0.8,8.9,138.14,27.11,24.58,36.26,0.04,-272.74,-272.73,-46,551,-929,21.9,1.7,-31.0,21.9,1.8,-30.7,5.73,2.42,-29.3,26.9
2012-01-12 00:07:00,0.0,1.9211,0.0011,403.36,0.24,2.0,7.0,138.14,27.11,24.58,36.26,0.04,-272.74,-272.74,-47,551,-929,21.9,1.7,-31.0,21.9,1.8,-30.7,5.73,2.33,-29.3,26.9
2012-01-12 00:08:00,0.0,1.9205,0.0009,403.41,0.22,0.4,5.1,138.14,27.11,24.58,36.26,0.04,-272.74,-272.74,-46,551,-930,21.9,1.7,-31.0,21.9,1.8,-30.7,5.73,2.51,-29.3,26.8
2012-01-12 00:09:00,0.0,1.9205,0.0009,403.25,0.25,0.6,6.3,138.14,27.12,24.58,36.26,0.04,-272.74,-272.74,-46,552,-929,21.9,1.7,-31.0,21.9,1.8,-30.7,5.73,2.36,-29.3,26.8
2012-01-12 00:10:00,0.0,1.9207,0.0010,403.35,0.25,0.7,5.6,138.14,27.12,24.58,36.26,0.04,-272.74,-272.74,-47,551,-929,21.9,1.7,-31.0,21.9,1.8,-30.7,5.73,2.39,-29.3,26.9
2012-01-12 00:11:00,0.0,1.9209,0.0012,403.40,0.21,2.4,8.8,138.14,27.12,24.58,36.26,0.04,-272.74,-272.74,-46,551,-930,21.9,1.7,-31.0,21.9,1.8,-30.7,5.73,2.50,-29.3,26.9
2012-01-12 00:12:00,0.0,1.9208,0.0010,403.27,0.24,1.8,8.7,138.14,27.13,24.58,36.26,0.04,-272.74,-272.74,-47,551,-929,21.9,1.7,-31.0,21.9,1.8,-30.7,5.73,2.31,-29.3,26.9
2012-01-12 00:13:00,0.0,1.9208,0.0009,403.42,0.19,1.1,6.3,138.14,27.13,24.58,36.26,0.04,-272.74,-272.74,-46,550,-929,21.9,1.7,-31.0,21.9,1.8,-30.7,5.73,2.46,-29.3,26.9
2012-01-12 00:14:00,0.0,1.9204,0.0009,403.33,0.20,0.2,4.7,138.14,27.13,24.59,36.26,0.04,-272.74,-272.73,-47,551,-930,21.9,1.7,-31.1,21.9,1.8,-30.8,5.73,2.43,-29.3,26.9
2012-01-12 00:15:00,0.0,1.9207,0.0010,403.33,0.21,0.0,4.6,138.14,27.13,24.58,36.26,0.04,-272.74,-272.74,-46,551,-929,22.0,1.7,-31.2,21.9,1.8,-30.9,5.73,2.32,-29.3,26.9
2012-01-12 00:16:00,0.0,1.9203,0.0010,403.42,0.20,1.0,6.5,138.14,27.14,24.59,36.25,0.04,-272.73,-272.74,-46,551,-930,22.0,1.7,-31.2,22.0,1.8,-30.9,5.73,2.51,-29.4,26.9
2012-01-12 00:17:00,0.0,1.9208,0.0009,403.34,0.21,1.0,6.7,138.14,27.14,24.58,36.26,0.04,-272.74,-272.73,-47,551,-930,22.0,1.7,-31.1,22.0,1.8,-30.9,5.73,2.36,-29.3,26.9
2012-01-12 00:18:00,0.0,1.9207,0.0009,403.33,0.27,2.0,9.2,138.14,27.14,24.58,36.26,0.04,-272.74,-272.74,-46,551,-929,22.0,1.7,-31.2,22.0,1.8,-30.9,5.73,2.38,-29.4,26.9
2012-01-12 00:19:00,0.0,1.9204,0.0009,403.34,0.25,0.6,5.5,138.14,27.15,24.59,36.26,0.04,-272.74,-272.74,-47,551,-930,22.0,1.7,-31.1,22.0,1.8,-30.8,5.73,2.50,-29.4,26.9
2012-01-12 00:20:00,0.0,1.9206,0.0009,403.42,0.24,-0.1,2.9,138.14,27.15,24.58,36.25,0.04,-272.74,-272.74,-46,551,-929,22.0,1.7,-31.1,22.0,1.8,-30.8,5.73,2.31,-29.4,26.9
2012-01-12 00:21:00,0.0,1.9206,0.0009,403.35,0.24,0.7,6.8,138.14,27.15,24.58,36.26,0.04,-272.74,-272.74,-47,551,-929,22.0,1.7,-31.2,22.0,1.8,-30.8,5.73,2.47,-29.4,26.9
2012-01-12 00:22:00,0.0,1.9202,0.0010,403.32,0.21,0.7,5.8,138.14,27.16,24.58,36.26,0.04,-272.74,-272.74,-46,551,-930,22.0,1.7,-31.2,22.0,1.8,-30.8,5.73,2.43,-29.4,26.9
2012-01-12 00:23:00,0.0,1.9206,0.0010,403.34,0.26,0.1,3.7,138.14,27.16,24.58,36.26,0.04,-272.74,-272.74,-46,551,-929,22.0,1.7,-31.0,22.0,1.8,-30.7,5.73,2.32,-29.4,26.9
2012-01-12 00:24:00,0.0,1.9197,0.0009,403.16,0.22,0.5,4.9,138.14,27.16,24.59,36.26,0.04,-272.74,-272.73,-47,551,-929,22.0,1.7,-31.0,22.0,1.8,-30.7,5.73,2.50,-29.4,27.0
2012-01-12 00:25:00,0.0,1.9207,0.0010,403.28,0.25,1.1,9.2,138.14,27.16,24.58,36.26,0.04,-272.74,-272.74,-46,551,-929,22.0,1.7,-31.0,22.0,1.8,-30.6,5.73,2.37,-29.4,27.0
2012-01-12 00:26:00,0.0,1.9201,0.0009,403.11,0.28,1.6,6.8,138.14,27.17,24.58,36.26,0.04,-272.74,-272.74,-47,551,-930,22.0,1.7,-31.0,22.0,1.8,-30.5,5.73,2.38,-29.4,26.9
2012-01-12 00:27:00,0.0,1.9204,0.0008,403.27,0.21,0.9,6.5,138.14,27.17,24.59,36.26,0.04,-272.74,-272.74,-46,551,-929,22.0,1.7,-31.0,22.0,1.8,-30.5,5.73,2.50,-29.4,26.9
2012-01-12 00:28:00,0.0,1.9208,0.0009,403.30,0.19,4.1,12.4,138.14,27.17,24.58,36.26,0.04,-272.74,-272.74,-47,551,-929,22.0,1.7,-31.0,22.0,1.8,-30.5,5.73,2.31,-29.4,26.9
2012-01-12 00:29:00,0.0,1.9206,0.0010,403.29,0.21,0.2,3.8,138.14,27.17,24.58,36.25,0.04,-272.74,-272.74,-46,551,-929,22.0,1.7,-31.0,22.0,1.8,-30.5,5.73,2.45,-29.4,27.0
2012-01-12 00:30:00,0.0,1.9208,0.0009,403.05,0.20,1.2,9.4,138.14,27.18,24.58,36.26,0.04,-272.74,-272.74,-46,551,-929,22.0,1.8,-30.8,22.0,1.8,-30.5,5.73,2.45,-29.4,27.0
2012-01-12 00:31:00,0.0,1.9214,0.0010,403.10,0.22,1.6,8.4,138.14,27.18,24.58,36.26,0.04,-272.74,-272.74,-47,551,-929,22.0,1.8,-30.8,22.0,1.8,-30.5,5.73,2.32,-29.4,27.0
2012-01-12 00:32:00,0.0,1.9216,0.0010,403.08,0.24,0.5,6.4,138.14,27.18,24.58,36.26,0.04,-272.74,-272.74,-46,551,-930,22.0,1.8,-30.8,22.0,1.8,-30.4,5.73,2.51,-29.4,27.0
2012-01-12 00:33:00,0.0,1.9219,0.0009,403.01,0.21,2.8,12.6,138.14,27.18,24.59,36.27,0.04,-272.74,-272.74,-47,551,-929,22.0,1.8,-30.7,22.0,1.9,-30.3,5.73,2.36,-29.4,27.0
2012-01-12 00:34:00,0.0,1.9220,0.0009,403.04,0.22,0.3,3.7,138.14,27.18,24.59,36.26,0.04,-272.74,-272.74,-46,551,-929,22.0,1.8,-30.6,22.0,1.9,-30.3,5.73,2.38,-29.4,26.9
2012-01-12 00:35:00,0.0,1.9226,0.0009,403.03,0.19,2.7,11.8,138.14,27.19,24.58,36.26,0.04,-272.74,-272.74,-47,551,-929,22.0,1.8,-30.5,22.0,1.9,-30.2,5.73,2.50,-29.4,26.9
2012-01-12 00:36:00,0.0,1.9225,0.0009,403.00,0.21,2.3,10.8,138.14,27.19,24.58,36.26,0.04,-272.74,-272.74,-46,551,-929,22.0,1.8,-30.5,22.0,1.9,-30.2,5.73,2.31,-29.4,27.0
2012-01-12 00:37:00,0.0,1.9229,0.0010,403.00,0.23,1.6,10.0,138.14,27.20,24.58,36.26,0.04,-272.74,-272.74,-46,552,-929,22.0,1.8,-30.4,22.0,1.9,-30.1,5.73,2.45,-29.4,27.0
2012-01-12 00:38:00,0.0,1.9229,0.0011,403.07,0.21,0.5,4.9,138.14,27.20,24.58,36.26,0.04,-272.73,-272.74,-47,551,-930,22.0,1.8,-30.4,22.0,1.9,-30.0,5.73,2.44,-29.4,27.0
2012-01-12 00:39:00,0.0,1.9233,0.0009,402.99,0.24,3.6,12.8,138.14,27.20,24.58,36.26,0.04,-272.74,-272.74,-46,552,-930,22.0,1.8,-30.4,22.0,1.9,-30.0,5.73,2.32,-29.4,27.0
2012-01-12 00:40:00,0.0,1.9247,0.0010,403.10,0.26,2.2,9.9,138.14,27.21,24.58,36.26,0.04,-272.74,-272.74,-47,551,-929,22.0,1.8,-30.4,22.0,1.9,-30.0,5.73,2.51,-29.4,27.0
2012-01-12 00:41:00,0.0,1.9250,0.0009,403.20,0.28,2.9,12.6,138.14,27.21,24.58,36.26,0.04,-272.74,-272.74,-46,551,-929,22.0,1.8,-30.3,22.0,1.9,-30.0,5.73,2.35,-29.4,27.0
2012-01-12 00:42:00,0.0,1.9257,0.0009,403.22,0.23,1.2,7.5,138.14,27.21,24.59,36.26,0.04,-272.74,-272.74,-47,551,-930,22.0,1.9,-30.3,22.0,1.9,-30.0,5.73,2.38,-29.4,27.0
2012-01-12 00:43:00,0.0,1.9259,0.0008,403.25,0.23,1.8,8.2,138.14,27.22,24.58,36.26,0.04,-272.74,-272.74,-46,551,-929,22.0,1.9,-30.2,22.0,1.9,-29.9,5.73,2.50,-29.4,27.0
2012-01-12 00:44:00,0.0,1.9263,0.0012,403.24,0.24,0.7,5.5,138.14,27.22,24.58,36.26,0.04,-272.73,-272.74,-47,551,-929,22.0,1.9,-30.2,22.1,1.9,-29.8,5.73,2.31,-29.4,27.0
2012-01-12 00:45:00,0.0,1.9274,0.0010,403.28,0.29,1.0,10.0,138.14,27.22,24.58,36.27,0.04,-272.73,-272.74,-47,552,-930,22.0,1.9,-30.2,22.1,1.9,-29.8,5.73,2.44,-29.4,27.0
2012-01-12 00:46:00,0.0,1.9278,0.0008,403.26,0.24,0.3,4.4,138.14,27.22,24.58,36.26,0.04,-272.74,-272.74,-46,551,-930,22.0,1.9,-30.2,22.1,1.9,-29.8,5.73,2.45,-29.4,27.0
2012-01-12 00:47:00,0.0,1.9274,0.0012,403.46,0.21,0.3,7.3,138.14,27.22,24.58,36.25,0.04,-272.74,-272.74,-47,551,-929,22.0,1.9,-30.1,22.1,1.9,-29.8,5.73,2.32,-29.4,27.0
2012-01-12 00:48:00,0.0,1.9269,0.0009,403.31,0.23,-0.3,2.6,138.14,27.23,24.58,36.26,0.04,-272.74,-272.74,-46,551,-929,22.1,1.9,-30.0,22.1,2.0,-29.7,5.73,2.51,-29.4,27.0
2012-01-12 00:49:00,0.0,1.9272,0.0009,403.34,0.26,1.5,7.8,138.14,27.23,24.58,36.26,0.04,-272.74,-272.74,-47,552,-930,22.1,1.9,-30.0,22.1,2.0,-29.7,5.73,2.35,-29.4,27.0
2012-01-12 00:50:00,0.0,1.9277,0.0009,403.32,0.23,1.3,8.7,138.14,27.23,24.58,36.26,0.04,-272.74,-272.74,-46,552,-930,22.1,1.9,-30.1,22.1,1.9,-29.8,5.73,2.39,-29.4,27.0
2012-01-12 00:51:00,0.0,1.9275,0.0009,403.30,0.21,0.8,6.0,138.14,27.24,24.59,36.27,0.04,-272.74,-272.74,-47,551,-929,22.0,1.9,-30.2,22.1,1.9,-29.8,5.73,2.49,-29.4,27.0
2012-01-12 00:52:00,0.0,1.9275,0.0011,403.32,0.22,-0.1,3.4,138.14,27.24,24.58,36.25,0.04,-272.73,-272.74,-47,551,-929,22.0,1.9,-30.1,22.1,2.0,-29.7,5.73,2.31,-29.4,27.0
2012-01-12 00:53:00,0.0,1.9268,0.0009,403.20,0.27,1.8,7.3,138.14,27.24,24.58,36.26,0.04,-272.74,-272.74,-46,552,-930,22.0,1.9,-30.0,22.1,2.0,-29.7,5.73,2.46,-29.4,27.0
2012-01-12 00:54:00,0.0,1.9266,0.0009,403.08,0.24,-0.8,1.2,138.14,27.25,24.58,36.27,0.04,-272.74,-272.74,-47,551,-930,22.0,1.9,-30.0,22.1,2.0,-29.7,5.73,2.44,-29.4,27.1
2012-01-12 00:55:00,0.0,1.9264,0.0011,403.06,0.22,-0.5,2.3,138.14,27.25,24.58,36.26,0.04,-272.74,-272.74,-46,552,-929,22.1,1.9,-30.2,22.1,1.9,-29.8,5.73,2.32,-29.4,27.0
2012-01-12 00:56:00,0.0,1.9256,0.0012,403.13,0.20,0.8,6.1,138.14,27.25,24.58,36.26,0.04,-272.74,-272.74,-47,551,-930,22.1,1.9,-30.3,22.1,1.9,-29.9,5.73,2.51,-29.4,27.0
2012-01-12 00:57:00,0.0,1.9251,0.0011,403.10,0.23,1.4,8.1,138.14,27.25,24.58,36.26,0.04,-272.74,-272.74,-46,551,-930,22.1,1.9,-30.2,22.1,1.9,-29.9,5.73,2.35,-29.4,27.0
2012-01-12 00:58:00,0.0,1.9253,0.0009,403.14,0.28,1.2,8.8,138.14,27.26,24.58,36.26,0.04,-272.74,-272.74,-47,552,-930,22.1,1.9,-30.1,22.1,1.9,-29.8,5.73,2.39,-29.4,27.1
2012-01-12 00:59:00,0.0,1.9250,0.0009,403.06,0.25,5.7,19.4,138.14,27.26,24.58,36.26,0.04,-272.74,-272.74,-47,552,-930,22.1,1.9,-30.1,22.1,1.9,-29.8,5.73,2.49,-29.4,27.0
2012-01-12 01:00:00,0.0,1.9249,0.0008,403.08,0.20,1.0,6.0,138.14,27.26,24.58,36.26,0.04,-272.74,-272.74,-46,552,-930,22.1,1.9,-30.2,22.1,1.9,-30.0,5.73,2.31,-29.4,27.0
2012-01-12 01:01:00,0.0,1.9250,0.0009,403.15,0.21,0.7,7.7,138.14,27.26,24.58,36.25,0.04,-272.74,-272.74,-47,551,-930,22.1,1.9,-30.3,22.1,1.9,-30.0,5.73,2.47,-29.4,27.1
2012-01-12 01:02:00,0.0,1.9253,0.0008,403.02,0.21,-0.2,2.7,138.14,27.27,24.59,36.26,0.04,-272.74,-272.74,-46,551,-929,22.1,1.8,-30.3,22.1,1.9,-30.0,5.73,2.43,-29.4,27.1
2012-01-12 01:03:00,0.0,1.9262,0.0009,403.08,0.21,1.2,8.9,138.14,27.27,24.58,36.26,0.04,-272.74,-272.74,-47,551,-930,22.1,1.9,-30.3,22.1,1.9,-30.0,5.73,2.33,-29.4,27.0
2012-01-12 01:04:00,0.0,1.9257,0.0013,403.15,0.22,1.4,10.9,138.14,27.27,24.59,36.25,0.04,-272.74,-272.74,-46,552,-930,22.1,1.8,-30.3,22.1,1.9,-30.0,5.73,2.51,-29.4,27.1
2012-01-12 01:05:00,0.0,1.9250,0.0009,402.96,0.24,1.2,6.4,138.14,27.27,24.58,36.27,0.04,-272.74,-272.74,-47,552,-929,22.1,1.9,-30.3,22.1,1.9,-30.0,5.73,2.35,-29.4,27.1
2012-01-12 01:06:00,0.0,1.9253,0.0010,402.98,0.26,-0.5,2.5,138.14,27.28,24.58,36.26,0.04,-272.74,-272.74,-47,552,-930,22.1,1.9,-30.3,22.1,1.9,-29.9,5.73,2.40,-29.4,27.1
2012-01-12 01:07:00,0.0,1.9253,0.0010,403.09,0.20,1.5,10.4,138.14,27.28,24.59,36.26,0.04,-272.74,-272.73,-47,552,-929,22.1,1.9,-30.1,22.1,1.9,-29.8,5.73,2.48,-29.4,27.0
2012-01-12 01:08:00,0.0,1.9255,0.0010,402.98,0.23,0.9,5.3,138.14,27.28,24.58,36.27,0.04,-272.74,-272.74,-47,551,-929,22.1,1.9,-30.1,22.1,1.9,-29.8,5.73,2.31,-29.3,27.0
2012-01-12 01:09:00,0.0,1.9247,0.0010,402.91,0.22,0.4,5.9,138.14,27.29,24.58,36.26,0.04,-272.74,-272.74,-46,552,-930,22.1,1.9,-30.1,22.1,1.9,-29.8,5.73,2.48,-29.4,27.1
2012-01-12 01:10:00,0.0,1.9248,0.0007,402.92,0.21,0.2,7.0,138.14,27.29,24.58,36.26,0.04,-272.74,-272.74,-47,551,-930,22.1,1.9,-30.1,22.1,1.9,-29.8,5.73,2.41,-29.4,27.1
2012-01-12 01:11:00,0.0,1.9254,0.0008,403.00,0.17,-0.3,3.1,138.14,27.30,24.58,36.26,0.04,-272.73,-272.74,-46,551,-929,22.1,1.9,-30.1,22.1,2.0,-29.7,5.73,2.34,-29.4,27.1
2012-01-12 01:12:00,0.0,1.9255,0.0010,403.01,0.20,-0.5,2.6,138.14,27.30,24.59,36.26,0.04,-272.74,-272.73,-47,552,-929,22.1,1.9,-30.0,22.1,2.0,-29.7,5.73,2.51,-29.4,27.1
2012-01-12 01:13:00,0.0,1.9261,0.0008,403.06,0.21,0.3,9.6,138.14,27.30,24.59,36.26,0.04,-272.74,-272.74,-47,552,-930,22.1,1.9,-30.0,22.1,2.0,-29.7,5.73,2.34,-29.4,27.1
2012-01-12 01:14:00,0.0,1.9257,0.0009,403.07,0.26,-0.9,0.9,138.14,27.30,24.59,36.26,0.04,-272.74,-272.74,-47,552,-929,22.1,1.9,-30.0,22.1,2.0,-29.7,5.73,2.40,-29.4,27.1
2012-01-12 01:15:00,0.0,1.9267,0.0011,402.99,0.23,-0.0,4.7,138.14,27.30,24.58,36.27,0.04,-272.74,-272.74,-47,551,-929,22.1,1.9,-30.0,22.1,2.0,-29.6,5.73,2.48,-29.4,27.1
2012-01-12 01:16:00,0.0,1.9267,0.0009,403.06,0.24,2.0,9.3,138.14,27.31,24.59,36.27,0.04,-272.74,-272.74,-47,551,-929,22.1,1.9,-29.9,22.1,2.0,-29.6,5.73,2.30,-29.4,27.1
2012-01-12 01:17:00,0.0,1.9266,0.0010,403.09,0.21,-0.8,1.2,138.14,27.31,24.59,36.26,0.04,-272.74,-272.74,-47,552,-929,22.1,1.9,-30.0,22.1,2.0,-29.7,5.73,2.49,-29.4,27.1
2012-01-12 01:18:00,0.0,1.9267,0.0010,403.07,0.23,0.5,4.8,138.14,27.31,24.59,36.26,0.04,-272.74,-272.74,-47,552,-929,22.1,1.9,-29.9,22.1,2.0,-29.7,5.73,2.40,-29.4,27.1
2012-01-12 01:19:00,0.0,1.9267,0.0008,403.02,0.22,0.9,5.4,138.14,27.31,24.58,36.27,0.04,-272.74,-272.74,-47,552,-929,22.1,1.9,-29.9,22.1,2.0,-29.6,5.73,2.35,-29.3,27.1
2012-01-12 01:20:00,0.0,1.9271,0.0010,403.17,0.20,0.8,6.0,138.14,27.31,24.59,36.26,0.04,-272.74,-272.74,-47,551,-929,22.1,1.9,-29.9,22.1,2.0,-29.6,5.73,2.51,-29.3,27.1
2012-01-12 01:21:00,0.0,1.9273,0.0012,403.05,0.22,-0.9,0.8,138.14,27.32,24.58,36.27,0.04,-272.74,-272.74,-47,552,-929,22.1,1.9,-29.9,22.1,2.0,-29.5,5.73,2.32,-29.3,27.1
2012-01-12 01:22:00,0.0,1.9290,0.0009,403.16,0.23,2.4,10.4,138.14,27.32,24.58,36.27,0.04,-272.74,-272.74,-47,552,-929,22.1,1.9,-29.9,22.1,2.0,-29.5,5.73,2.44,-29.3,27.1
2012-01-12 01:23:00,0.0,1.9277,0.0009,403.20,0.24,1.4,8.4,138.14,27.32,24.59,36.26,0.04,-272.73,-272.74,-47,552,-929,22.1,1.9,-29.8,22.1,2.0,-29.5,5.73,2.45,-29.4,27.1
2012-01-12 01:24:00,0.0,1.9270,0.0009,403.16,0.25,3.2,12.1,138.14,27.33,24.59,36.27,0.04,-272.74,-272.74,-47,551,-930,22.1,1.9,-29.8,22.1,2.0,-29.5,5.73,2.31,-29.4,27.1
2012-01-12 01:25:00,0.0,1.9263,0.0010,403.11,0.25,1.8,9.0,138.14,27.33,24.58,36.26,0.04,-272.74,-272.74,-46,552,-929,22.1,1.9,-29.8,22.1,2.0,-29.5,5.73,2.51,-29.4,27.1
2012-01-12 01:26:00,0.0,1.9269,0.0009,403.15,0.27,0.9,7.5,138.14,27.33,24.59,36.27,0.04,-272.74,-272.74,-47,552,-930,22.1,1.9,-29.8,22.1,2.0,-29.5,5.73,2.34,-29.3,27.1
2012-01-12 01:27:00,0.0,1.9259,0.0009,403.13,0.26,0.7,8.5,138.14,27.33,24.58,36.27,0.04,-272.74,-272.74,-46,552,-930,22.1,2.0,-29.6,22.1,2.0,-29.4,5.73,2.40,-29.4,27.1
2012-01-12 01:28:00,0.0,1.9265,0.0010,403.18,0.22,2.5,9.9,138.14,27.34,24.59,36.26,0.04,-272.74,-272.74,-47,552,-930,22.1,2.0,-29.6,22.1,2.0,-29.4,5.73,2.48,-29.3,27.0
2012-01-12 01:29:00,0.0,1.9264,0.0009,403.05,0.22,0.9,5.9,138.14,27.34,24.58,36.27,0.04,-272.73,-272.74,-46,551,-929,22.2,2.0,-29.6,22.1,2.0,-29.3,5.73,2.31,-29.3,27.0
2012-01-12 01:30:00,0.0,1.9269,0.0009,403.07,0.25,0.9,6.6,138.14,27.34,24.59,36.27,0.04,-272.74,-272.74,-47,552,-929,22.2,1.9,-29.7,22.1,2.0,-29.4,5.73,2.50,-29.3,27.1
2012-01-12 01:31:00,0.0,1.9265,0.0010,403.07,0.23,2.4,11.8,138.14,27.34,24.59,36.27,0.04,-272.74,-272.74,-47,552,-930,22.2,1.9,-29.8,22.2,2.0,-29.5,5.73,2.38,-29.3,27.1
2012-01-12 01:32:00,0.0,1.9265,0.0010,403.08,0.23,1.7,10.3,138.14,27.35,24.59,36.27,0.04,-272.74,-272.74,-47,552,-930,22.2,1.9,-29.8,22.2,2.0,-29.5,5.73,2.37,-29.3,27.1
2012-01-12 01:33:00,0.0,1.9258,0.0007,403.04,0.23,4.0,17.2,138.14,27.35,24.59,36.27,0.04,-272.74,-272.74,-47,552,-930,22.2,1.9,-29.7,22.2,2.0,-29.4,5.73,2.49,-29.3,27.1
2012-01-12 01:34:00,0.0,1.9263,0.0011,403.04,0.22,1.9,10.5,138.14,27.35,24.59,36.27,0.04,-272.74,-272.74,-46,552,-930,22.2,1.9,-29.8,22.2,2.0,-29.5,5.73,2.30,-29.3,27.1
2012-01-12 01:35:00,0.0,1.9256,0.0011,403.09,0.26,0.8,6.0,138.14,27.36,24.59,36.26,0.04,-272.74,-272.74,-47,552,-930,22.2,1.9,-29.8,22.2,2.0,-29.5,5.73,2.49,-29.3,27.1
2012-01-12 01:36:00,0.0,1.9260,0.0009,403.08,0.25,1.5,8.2,138.14,27.36,24.59,36.26,0.04,-272.74,-272.74,-46,552,-930,22.2,1.9,-29.8,22.2,2.0,-29.4,5.73,2.38,-29.3,27.0
2012-01-12 01:37:00,0.0,1.9259,0.0010,403.11,0.24,0.7,8.1,138.14,27.36,24.59,36.27,0.04,-272.74,-272.74,-47,551,-929,22.2,1.9,-29.8,22.2,2.0,-29.5,5.73,2.36,-29.3,27.1
2012-01-12 01:38:00,0.0,1.9265,0.0010,403.04,0.21,1.2,6.8,138.14,27.36,24.58,36.27,0.04,-272.74,-272.74,-46,552,-930,22.2,1.9,-29.8,22.2,2.0,-29.5,5.73,2.50,-29.3,27.1
2012-01-12 01:39:00,0.0,1.9261,0.0008,403.04,0.22,1.5,7.5,138.14,27.36,24.58,36.27,0.04,-272.74,-272.74,-47,552,-930,22.2,1.9,-29.8,22.2,2.0,-29.5,5.73,2.30,-29.3,27.1
2012-01-12 01:40:00,0.0,1.9256,0.0010,402.95,0.26,0.1,4.5,138.14,27.36,24.58,36.27,0.04,-272.74,-272.74,-46,552,-929,22.2,1.9,-29.7,22.2,2.0,-29.5,5.73,2.47,-29.3,27.1
2012-01-12 01:41:00,0.0,1.9256,0.0010,403.04,0.22,2.1,9.9,138.14,27.37,24.59,36.27,0.04,-272.74,-272.74,-47,552,-930,22.2,1.9,-29.8,22.2,2.0,-29.4,5.73,2.40,-29.3,27.1
2012-01-12 01:42:00,0.0,1.9261,0.0011,402.94,0.22,0.4,7.5,138.14,27.37,24.58,36.28,0.04,-272.74,-272.73,-47,552,-930,22.2,1.9,-29.7,22.2,2.0,-29.4,5.73,2.36,-29.3,27.2
2012-01-12 01:43:00,0.0,1.9261,0.0009,403.00,0.22,-0.4,2.9,138.14,27.37,24.58,36.27,0.04,-272.74,-272.74,-47,552,-930,22.2,1.9,-29.8,22.2,2.0,-29.5,5.73,2.50,-29.3,27.1
2012-01-12 01:44:00,0.0,1.9250,0.0009,403.01,0.23,1.2,5.7,138.14,27.37,24.59,36.27,0.04,-272.74,-272.74,-47,552,-929,22.2,1.9,-29.9,22.2,2.0,-29.6,5.73,2.31,-29.3,27.2
2012-01-12 01:45:00,0.0,1.9261,0.0011,402.99,0.24,1.2,6.4,138.14,27.37,24.58,36.27,0.04,-272.74,-272.74,-46,552,-930,22.2,1.9,-29.9,22.2,2.0,-29.6,5.73,2.47,-29.3,27.1
2012-01-12 01:46:00,0.0,1.9266,0.0009,403.04,0.23,1.8,9.3,138.14,27.38,24.59,36.27,0.04,-272.74,-272.74,-47,552,-930,22.2,1.9,-30.0,22.2,2.0,-29.6,5.73,2.39,-29.3,27.1
2012-01-12 01:47:00,0.0,1.9264,0.0011,403.02,0.24,0.5,5.3,138.14,27.38,24.59,36.27,0.04,-272.74,-272.74,-46,552,-930,22.2,1.9,-30.1,22.2,1.9,-29.8,5.73,2.36,-29.3,27.2
2012-01-12 01:48:00,0.0,1.9269,0.0010,403.06,0.22,0.6,7.0,138.14,27.38,24.59,36.26,0.04,-272.74,-272.74,-47,552,-930,22.2,1.9,-30.1,22.2,1.9,-29.7,5.73,2.50,-29.3,27.2
2012-01-12 01:49:00,0.0,1.9262,0.0008,403.01,0.22,1.4,7.6,138.14,27.38,24.59,36.27,0.04,-272.74,-272.74,-46,552,-930,22.2,1.9,-30.2,22.2,1.9,-29.9,5.73,2.30,-29.3,27.2
2012-01-12 01:50:00,0.0,1.9258,0.0010,403.07,0.22,1.8,9.1,138.14,27.38,24.59,36.27,0.04,-272.74,-272.74,-47,552,-930,22.2,1.8,-30.2,22.2,1.9,-29.9,5.73,2.49,-29.3,27.2
2012-01-12 01:51:00,0.0,1.9260,0.0010,403.12,0.23,2.8,11.1,138.14,27.39,24.58,36.26,0.04,-272.74,-272.74,-46,552,-929,22.2,1.9,-30.1,22.2,1.9,-29.8,5.73,2.38,-29.3,27.1
2012-01-12 01:52:00,0.0,1.9253,0.0009,402.95,0.20,0.0,4.9,138.14,27.39,24.59,36.27,0.04,-272.74,-272.74,-47,552,-929,22.2,1.9,-30.0,22.2,1.9,-29.8,5.73,2.38,-29.3,27.1
2012-01-12 01:53:00,0.0,1.9249,0.0011,403.09,0.24,1.0,8.2,138.14,27.39,24.58,36.27,0.04,-272.74,-272.74,-46,552,-929,22.2,1.9,-30.0,22.2,1.9,-29.8,5.73,2.49,-29.3,27.1
2012-01-12 01:54:00,0.0,1.9248,0.0009,403.04,0.24,2.0,10.5,138.14,27.39,24.59,36.27,0.04,-272.74,-272.74,-47,552,-930,22.3,1.9,-30.0,22.2,1.9,-29.7,5.73,2.30,-29.3,27.1
2012-01-12 01:55:00,0.0,1.9249,0.0008,403.04,0.21,0.4,6.9,138.14,27.40,24.58,36.27,0.04,-272.74,-272.74,-46,552,-929,22.2,1.9,-29.9,22.2,2.0,-29.6,5.73,2.50,-29.3,27.2
2012-01-12 01:56:00,0.0,1.9253,0.0009,403.00,0.23,2.0,10.7,138.14,27.40,24.59,36.27,0.04,-272.74,-272.74,-47,552,-930,22.3,1.9,-29.9,22.2,2.0,-29.6,5.73,2.35,-29.3,27.2
2012-01-12 01:57:00,0.0,1.9250,0.0011,403.08,0.20,0.3,5.1,138.14,27.40,24.58,36.27,0.04,-272.74,-272.74,-47,552,-929,22.2,1.9,-30.0,22.2,2.0,-29.6,5.73,2.40,-29.3,27.2
2012-01-12 01:58:00,0.0,1.9247,0.0008,403.11,0.24,0.9,7.1,138.14,27.40,24.59,36.26,0.04,-272.74,-272.74,-46,553,-929,22.3,1.9,-29.9,22.2,2.0,-29.6,5.73,2.47,-29.3,27.1
2012-01-12 01:59:00,0.0,1.9250,0.0010,403.11,0.21,1.4,10.8,138.14,27.41,24.59,36.27,0.04,-272.74,-272.74,-47,552,-929,22.2,1.9,-29.9,22.2,2.0,-29.6,5.73,2.30,-29.3,27.2
2012-01-12 02:00:00,0.0,1.9248,0.0011,403.08,0.24,0.9,7.0,138.14,27.41,24.59,36.27,0.04,-272.74,-272.74,-46,552,-929,22.3,1.9,-29.9,22.2,2.0,-29.6,5.73,2.51,-29.3,27.1
2012-01-12 02:01:00,0.0,1.9247,0.0009,403.07,0.19,3.4,11.8,138.14,27.41,24.59,36.27,0.04,-272.74,-272.74,-47,552,-929,22.3,1.9,-29.9,22.2,2.0,-29.6,5.73,2.33,-29.3,27.1
2012-01-12 02:02:00,0.0,1.9248,0.0010,403.09,0.26,2.9,11.2,138.14,27.41,24.58,36.27,0.04,-272.74,-272.74,-46,552,-929,22.3,1.9,-29.7,22.2,2.0,-29.5,5.73,2.44,-29.3,27.2
2012-01-12 02:03:00,0.0,1.9249,0.0008,403.08,0.22,1.7,9.1,138.14,27.41,24.59,36.27,0.04,-272.74,-272.74,-47,552,-930,22.3,1.9,-29.7,22.2,2.0,-29.4,5.73,2.44,-29.3,27.2
2012-01-12 02:04:00,0.0,1.9244,0.0010,403.03,0.26,3.1,11.3,138.14,27.42,24.59,36.27,0.04,-272.74,-272.74,-46,552,-929,22.3,1.9,-29.7,22.2,2.0,-29.5,5.73,2.33,-29.3,27.2
2012-01-12 02:05:00,0.0,1.9245,0.0008,403.02,0.24,1.6,8.0,138.14,27.42,24.58,36.27,0.04,-272.74,-272.74,-47,552,-930,22.3,1.9,-29.7,22.2,2.0,-29.4,5.73,2.51,-29.3,27.2
2012-01-12 02:06:00,0.0,1.9247,0.0009,403.05,0.23,2.2,9.4,138.14,27.42,24.59,36.27,0.04,-272.74,-272.74,-46,552,-930,22.3,1.9,-29.7,22.2,2.0,-29.4,5.73,2.30,-29.3,27.1
2012-01-12 02:07:00,0.0,1.9246,0.0009,403.03,0.16,0.8,5.7,138.14,27.42,24.59,36.27,0.04,-272.74,-272.74,-47,552,-930,22.3,1.9,-29.7,22.2,2.0,-29.4,5.73,2.49,-29.3,27.1
2012-01-12 02:08:00,0.0,1.9246,0.0009,403.04,0.21,0.3,4.2,138.14,27.43,24.59,36.27,0.04,-272.74,-272.74,-46,552,-929,22.3,1.9,-29.7,22.2,2.0,-29.4,5.73,2.38,-29.3,27.0
2012-01-12 02:09:00,0.0,1.9243,0.0009,402.98,0.23,2.7,11.8,138.14,27.43,24.59,36.28,0.04,-272.74,-272.74,-47,552,-929,22.3,1.9,-29.7,22.3,2.0,-29.4,5.73,2.38,-29.3,27.1
2012-01-12 02:10:00,0.0,1.9241,0.0007,403.03,0.22,2.5,10.0,138.14,27.43,24.59,36.27,0.04,-272.74,-272.74,-46,552,-930,22.3,1.9,-29.7,22.2,2.0,-29.4,5.73,2.48,-29.3,27.1
2012-01-12 02:11:00,0.0,1.9241,0.0010,402.89,0.24,2.6,11.9,138.14,27.43,24.59,36.28,0.04,-272.74,-272.75,-47,552,-929,22.3,1.9,-29.7,22.2,2.0,-29.4,5.73,2.30,-29.3,27.1
2012-01-12 02:12:00,0.0,1.9250,0.0008,403.02,0.20,1.3,8.2,138.14,27.44,24.59,36.28,0.04,-272.74,-272.74,-47,552,-929,22.3,1.9,-29.7,22.3,2.0,-29.4,5.73,2.51,-29.3,27.1
2012-01-12 02:13:00,0.0,1.9248,0.0010,403.01,0.27,1.0,6.9,138.14,27.44,24.59,36.27,0.04,-272.74,-272.74,-47,553,-930,22.3,1.9,-29.7,22.3,2.0,-29.4,5.73,2.33,-29.3,27.2
2012-01-12 02:14:00,0.0,1.9243,0.0012,403.07,0.26,0.9,6.9,138.14,27.44,24.59,36.27,0.04,-272.74,-272.74,-47,552,-929,22.3,1.9,-29.6,22.3,2.0,-29.3,5.73,2.45,-29.3,27.2
2012-01-12 02:15:00,0.0,1.9242,0.0009,403.09,0.23,1.2,7.0,138.13,27.44,24.59,36.27,0.04,-272.74,-272.74,-47,552,-929,22.3,2.0,-29.5,22.3,2.0,-29.3,5.73,2.41,-29.3,27.1
2012-01-12 02:16:00,0.0,1.9241,0.0009,403.06,0.23,3.4,12.3,138.14,27.44,24.59,36.27,0.04,-272.74,-272.74,-47,552,-929,22.3,2.0,-29.6,22.3,2.0,-29.3,5.73,2.35,-29.3,27.2
2012-01-12 02:17:00,0.0,1.9238,0.0009,403.00,0.23,1.4,9.5,138.13,27.45,24.59,36.27,0.04,-272.74,-272.74,-47,553,-930,22.3,2.0,-29.6,22.3,2.0,-29.3,5.73,2.50,-29.3,27.2
2012-01-12 02:18:00,0.0,1.9241,0.0010,403.03,0.24,0.5,5.7,138.14,27.45,24.59,36.27,0.04,-272.74,-272.74,-47,552,-930,22.3,2.0,-29.5,22.3,2.0,-29.3,5.73,2.30,-29.2,27.2
2012-01-12 02:19:00,0.0,1.9241,0.0008,403.12,0.21,0.1,5.2,138.14,27.45,24.59,36.27,0.04,-272.74,-272.73,-46,552,-930,22.3,2.0,-29.5,22.3,2.0,-29.3,5.73,2.50,-29.3,27.2